When you browse on this site, cookies collect data to enhance your experience and personalize the content and advertising you see.
Visit our Privacy Policy to learn more. By continuing to use the site, you agree to this use of cookies and data.
  • In Schweiz
  • Länderverzeichnis
  • Für 7 Tage
  • Wassertemperatur
  • Wetterkarte
  • Widgets
  • user-avatar
    Anmelden

    Stündliche Wetter Barnsley

    Heute, 19 September, Donnerstag

    Zeit Temperatur Niederschläge Wind Luftdruck Luftfeuchtigkeit
    00:00 +11°C° 0 mm 0 m/S 762 mmHg 84%
    01:00 +11°C° 0 mm 0 m/S 762 mmHg 85%
    02:00 +11°C° 0 mm 0 m/S 762 mmHg 85%
    03:00 +11°C° 0 mm 0 m/S 762 mmHg 86%
    04:00 +11°C° 0 mm 0 m/S 762 mmHg 86%
    05:00 +11°C° 0 mm 0 m/S 762 mmHg 86%
    06:00 +11°C° 0 mm 0 m/S 762 mmHg 86%
    07:00 +12°C° 0 mm 0 m/S 762 mmHg 80%
    08:00 +15°C° 0 mm 1 m/S 762 mmHg 74%
    09:00 +16°C° 0 mm 1 m/S 763 mmHg 68%
    10:00 +18°C° 0 mm 1 m/S 763 mmHg 64%
    11:00 +20°C° 0 mm 1 m/S 763 mmHg 60%
    12:00 +21°C° 0 mm 1 m/S 762 mmHg 55%
    13:00 +21°C° 0 mm 1 m/S 762 mmHg 55%
    14:00 +22°C° 0 mm 1 m/S 762 mmHg 54%
    15:00 +21°C° 0 mm 2 m/S 762 mmHg 54%
    16:00 +20°C° 0 mm 2 m/S 762 mmHg 60%
    17:00 +19°C° 0 mm 1 m/S 761 mmHg 65%
    18:00 +18°C° 0 mm 1 m/S 761 mmHg 70%
    19:00 +18°C° 0 mm 1 m/S 761 mmHg 73%
    20:00 +16°C° 0 mm 1 m/S 761 mmHg 76%
    21:00 +15°C° 0 mm 1 m/S 761 mmHg 79%
    22:00 +15°C° 0 mm 1 m/S 761 mmHg 79%
    23:00 +14°C° 0 mm 1 m/S 761 mmHg 80%

    Morgen, 20 September, Freitag

    Zeit Temperatur Niederschläge Wind Luftdruck Luftfeuchtigkeit
    00:00 +14°C° 0 mm 1 m/S 761 mmHg 81%
    01:00 +14°C° 0 mm 1 m/S 761 mmHg 81%
    02:00 +14°C° 0 mm 1 m/S 760 mmHg 81%
    03:00 +13°C° 0 mm 1 m/S 760 mmHg 81%
    04:00 +13°C° 0 mm 1 m/S 760 mmHg 82%
    05:00 +13°C° 0 mm 1 m/S 759 mmHg 82%
    06:00 +12°C° 0 mm 1 m/S 759 mmHg 83%
    07:00 +14°C° 0 mm 1 m/S 759 mmHg 77%
    08:00 +15°C° 0 mm 2 m/S 759 mmHg 72%
    09:00 +17°C° 0 mm 2 m/S 759 mmHg 67%
    10:00 +18°C° 0 mm 2 m/S 759 mmHg 64%
    11:00 +19°C° 0 mm 3 m/S 758 mmHg 61%
    12:00 +20°C° 0 mm 3 m/S 758 mmHg 58%
    13:00 +20°C° 0 mm 4 m/S 757 mmHg 58%
    14:00 +20°C° 0 mm 4 m/S 757 mmHg 58%
    15:00 +20°C° 0 mm 4 m/S 756 mmHg 58%
    16:00 +19°C° 0 mm 4 m/S 756 mmHg 62%
    17:00 +18°C° 0 mm 4 m/S 755 mmHg 66%
    18:00 +17°C° 0 mm 4 m/S 755 mmHg 70%
    19:00 +15°C° 0 mm 4 m/S 755 mmHg 71%
    20:00 +14°C° 0 mm 4 m/S 754 mmHg 73%
    21:00 +13°C° 0 mm 4 m/S 754 mmHg 74%
    22:00 +13°C° 0 mm 4 m/S 754 mmHg 77%
    23:00 +12°C° 0 mm 4 m/S 753 mmHg 79%

    übermorgen, 21 September, Samstag

    Zeit Temperatur Niederschläge Wind Luftdruck Luftfeuchtigkeit
    00:00 +12°C° 0 mm 4 m/S 753 mmHg 81%
    01:00 +11°C° 0 mm 3 m/S 752 mmHg 83%
    02:00 +11°C° 0 mm 3 m/S 752 mmHg 84%
    03:00 +11°C° 0 mm 3 m/S 751 mmHg 86%
    04:00 +11°C° 0 mm 3 m/S 751 mmHg 86%
    05:00 +11°C° 0 mm 3 m/S 750 mmHg 85%
    06:00 +11°C° 0 mm 3 m/S 750 mmHg 85%
    07:00 +12°C° 0 mm 4 m/S 749 mmHg 78%
    08:00 +13°C° 0 mm 5 m/S 749 mmHg 71%
    09:00 +15°C° 0 mm 5 m/S 749 mmHg 64%
    10:00 +16°C° 0 mm 5 m/S 748 mmHg 59%
    11:00 +17°C° 0 mm 5 m/S 748 mmHg 55%
    12:00 +20°C° 0 mm 6 m/S 747 mmHg 50%
    13:00 +20°C° 0 mm 5 m/S 747 mmHg 49%
    14:00 +21°C° 0 mm 5 m/S 746 mmHg 49%
    15:00 +21°C° 0 mm 5 m/S 745 mmHg 48%
    16:00 +20°C° 0 mm 5 m/S 745 mmHg 53%
    17:00 +19°C° 0 mm 4 m/S 744 mmHg 58%
    18:00 +18°C° 0 mm 4 m/S 744 mmHg 62%
    19:00 +17°C° 0 mm 3 m/S 744 mmHg 66%
    20:00 +16°C° 0 mm 3 m/S 744 mmHg 70%
    21:00 +14°C° 0 mm 3 m/S 744 mmHg 73%
    22:00 +15°C° 0 mm 2 m/S 743 mmHg 75%
    23:00 +15°C° 0 mm 2 m/S 743 mmHg 76%

    22 September, Sonntag

    Zeit Temperatur Niederschläge Wind Luftdruck Luftfeuchtigkeit
    00:00 +15°C° 0 mm 2 m/S 742 mmHg 78%
    01:00 +15°C° 0.1 mm 2 m/S 742 mmHg 80%
    02:00 +15°C° 0.1 mm 1 m/S 741 mmHg 82%
    03:00 +15°C° 0.1 mm 1 m/S 741 mmHg 84%
    04:00 +15°C° 0 mm 1 m/S 741 mmHg 86%
    05:00 +15°C° 0 mm 1 m/S 740 mmHg 87%
    06:00 +15°C° 0 mm 1 m/S 740 mmHg 89%
    07:00 +15°C° 0.2 mm 1 m/S 740 mmHg 88%
    08:00 +16°C° 0.2 mm 1 m/S 740 mmHg 88%
    09:00 +16°C° 0.2 mm 1 m/S 740 mmHg 87%
    10:00 +18°C° 0.4 mm 1 m/S 740 mmHg 88%
    11:00 +17°C° 0.4 mm 2 m/S 740 mmHg 88%
    12:00 +17°C° 0.4 mm 2 m/S 740 mmHg 88%
    13:00 +17°C° 1.1 mm 2 m/S 739 mmHg 86%
    14:00 +17°C° 1.1 mm 2 m/S 739 mmHg 83%
    15:00 +16°C° 1.1 mm 3 m/S 739 mmHg 81%
    16:00 +16°C° 0 mm 2 m/S 739 mmHg 82%
    17:00 +16°C° 0 mm 2 m/S 740 mmHg 83%
    18:00 +15°C° 0 mm 1 m/S 740 mmHg 84%
    19:00 +15°C° 0 mm 1 m/S 740 mmHg 85%
    20:00 +15°C° 0 mm 1 m/S 741 mmHg 85%
    21:00 +14°C° 0 mm 2 m/S 741 mmHg 86%
    22:00 +14°C° 0 mm 2 m/S 741 mmHg 87%
    23:00 +14°C° 0 mm 2 m/S 741 mmHg 87%

    23 September, Montag

    Zeit Temperatur Niederschläge Wind Luftdruck Luftfeuchtigkeit
    00:00 +12°C° 0 mm 3 m/S 742 mmHg 88%
    01:00 +12°C° 0 mm 3 m/S 742 mmHg 87%
    02:00 +12°C° 0 mm 3 m/S 742 mmHg 86%
    03:00 +12°C° 0 mm 4 m/S 743 mmHg 85%
    04:00 +11°C° 0 mm 3 m/S 743 mmHg 86%
    05:00 +11°C° 0 mm 3 m/S 743 mmHg 87%
    06:00 +11°C° 0 mm 3 m/S 743 mmHg 87%
    07:00 +12°C° 0 mm 3 m/S 743 mmHg 82%
    08:00 +13°C° 0 mm 3 m/S 743 mmHg 76%
    09:00 +14°C° 0 mm 3 m/S 743 mmHg 71%
    10:00 +16°C° 0 mm 3 m/S 743 mmHg 69%
    11:00 +15°C° 0 mm 4 m/S 743 mmHg 66%
    12:00 +17°C° 0 mm 4 m/S 742 mmHg 64%
    13:00 +15°C° 0.4 mm 4 m/S 741 mmHg 71%
    14:00 +14°C° 0.4 mm 4 m/S 741 mmHg 77%
    15:00 +13°C° 0.4 mm 4 m/S 740 mmHg 84%
    16:00 +13°C° 0.7 mm 4 m/S 739 mmHg 87%
    17:00 +13°C° 0.7 mm 4 m/S 738 mmHg 91%
    18:00 +13°C° 0.7 mm 3 m/S 738 mmHg 94%
    19:00 +14°C° 1 mm 3 m/S 738 mmHg 94%
    20:00 +14°C° 1 mm 3 m/S 738 mmHg 95%
    21:00 +16°C° 1 mm 3 m/S 738 mmHg 95%
    22:00 +15°C° 0 mm 4 m/S 738 mmHg 94%
    23:00 +15°C° 0 mm 4 m/S 738 mmHg 92%

    24 September, Dienstag

    Zeit Temperatur Niederschläge Wind Luftdruck Luftfeuchtigkeit
    00:00 +15°C° 0 mm 5 m/S 738 mmHg 90%
    01:00 +15°C° 0 mm 5 m/S 738 mmHg 89%
    02:00 +15°C° 0 mm 5 m/S 738 mmHg 87%
    03:00 +14°C° 0 mm 5 m/S 738 mmHg 86%
    04:00 +14°C° 0 mm 6 m/S 738 mmHg 85%
    05:00 +14°C° 0 mm 6 m/S 738 mmHg 84%
    06:00 +15°C° 0 mm 6 m/S 738 mmHg 84%
    07:00 +15°C° 0 mm 6 m/S 738 mmHg 81%
    08:00 +16°C° 0 mm 6 m/S 738 mmHg 78%
    09:00 +16°C° 0 mm 6 m/S 738 mmHg 75%
    10:00 +17°C° 0 mm 6 m/S 738 mmHg 75%
    11:00 +17°C° 0 mm 6 m/S 738 mmHg 75%
    12:00 +17°C° 0 mm 6 m/S 738 mmHg 75%
    13:00 +19°C° 0.1 mm 6 m/S 737 mmHg 75%
    14:00 +19°C° 0.1 mm 6 m/S 736 mmHg 74%
    15:00 +19°C° 0.1 mm 6 m/S 736 mmHg 74%
    16:00 +17°C° 0.2 mm 6 m/S 735 mmHg 74%
    17:00 +17°C° 0.2 mm 6 m/S 735 mmHg 75%
    18:00 +16°C° 0.2 mm 6 m/S 735 mmHg 75%
    19:00 +15°C° 0 mm 6 m/S 735 mmHg 77%
    20:00 +14°C° 0 mm 6 m/S 736 mmHg 78%
    21:00 +14°C° 0 mm 6 m/S 736 mmHg 80%
    22:00 +13°C° 0 mm 6 m/S 736 mmHg 81%
    23:00 +13°C° 0 mm 6 m/S 736 mmHg 82%
    Mehr zeigen